Overview Statistics Trail Chart Weather Telemetry Raw packets
 

This is the latest recevied weather packets stored in our database for station/object UHMM. If no packets are shown the sender has not sent any weather packets the latest 10 day(s).

<< 9 10 11 12 13 14 15 >>
Time Temp. Humidity Pressure Rain* Wind** Luminosity Snow
1777649410 -1.11° C 80% 1010 hPa - - - -
1777647611 -1.11° C 86% 1010 hPa - - - -
1777645809 -1.11° C 86% 1010 hPa - - - -
1777644010 -1.11° C 86% 1010 hPa - - - -
1777642210 -1.11° C 86% 1010 hPa - - - -
1777640411 -1.11° C 92% 1010 hPa - - - -
1777638610 -1.11° C 92% 1010 hPa - - - -
1777636824 -1.11° C 92% 1010 hPa - - - -
1777635010 -1.11° C 92% 1010 hPa - - - -
1777633209 -2.22° C 92% 1009 hPa - - - -
1777631409 -2.22° C 92% 1009 hPa - - - -
1777627809 0° C 86% 1009 hPa - - - -
1777626008 0° C 86% 1009 hPa - - - -
1777624209 0° C 86% 1009 hPa - - - -
1777622410 0.56° C 80% 1008 hPa - - - -
1777620609 1.67° C 74% 1008 hPa - - - -
1777618809 1.67° C 74% 1008 hPa - - - -
1777617009 1.67° C 74% 1008 hPa - - - -
1777615208 2.78° C 69% 1008 hPa - - - -
1777613409 2.78° C 69% 1008 hPa - - - -
1777611608 3.89° C 64% 1008 hPa - - - -
1777609811 3.89° C 60% 1008 hPa - - - -
1777608008 2.78° C 64% 1008 hPa - - - -
1777606207 2.78° C 64% 1008 hPa - - - -
1777604407 2.78° C 64% 1008 hPa - - - -

* Rain since midnight (hover to see other rain measurements)
** Current wind speed in m/s (hover to see current wind gust speed)